Location: Kaarina
(60.4167°N, 22.4167°E)
Time: 18:29:04
(UTC+03:00)

COSMOS 2455 - Pass Details

Date: 24 August 2019
Orbit: 899 x 910 km, 67.1° (Epoch: 17 September)

Event Time Altitude Azimuth Distance (km) Brightness Sun altitude
Rises 23:02:40 0° 300° (WNW) 3,552 7.3 -12.6°
Reaches altitude 10° 23:05:14 10° 304° (NW) 2,609 6.5 -12.8°
Maximum altitude 23:11:13 59° 24° (NNE) 1,053 3.4 -13.3°
Drops below altitude 10° 23:17:11 10° 104° (ESE) 2,599 4.8 -13.7°
Enters shadow 23:17:16 10° 104° (ESE) 2,632 4.8 -13.7°
